CES242 RKSI-ZSNJ

Flight info

Callsign CES242
Flight time 1h 46m
Altitude 36000
Route NOPIK2Y NOPIK Y697 AGAVO W209 OMLIB A326 IKADI W113 YCH W185 OF OF71F
Aircraft A321/M-SDE3FGHIRWY/LB1

Departure

Time 2026-04-20 13:20
Airport Incheon International Airport (RKSI)

Arrival

Time 2026-04-20 15:06
Airport Nanjing Lukou International Airport (ZSNJ)
Time Latitude Longitude Altitude Speed Heading
2026-04-20 13:19 37.49866 126.14482 10692 ft 317 kts 262°
2026-04-20 13:20 37.49339 126.11687 10822 ft 338 kts 261°
2026-04-20 13:20 37.48768 126.08771 11245 ft 347 kts 261°
2026-04-20 13:20 37.47594 126.02882 12561 ft 350 kts 260°
2026-04-20 13:21 37.47012 125.99914 13266 ft 351 kts 260°
2026-04-20 13:21 37.46436 125.96929 13946 ft 351 kts 261°
2026-04-20 13:21 37.45864 125.93934 14594 ft 353 kts 261°
2026-04-20 13:21 37.45294 125.90920 15259 ft 354 kts 261°
2026-04-20 13:22 37.44720 125.87903 15918 ft 355 kts 261°
2026-04-20 13:22 37.44143 125.84879 16571 ft 356 kts 261°
2026-04-20 13:22 37.43560 125.81839 17185 ft 358 kts 260°
2026-04-20 13:22 37.42973 125.78800 17787 ft 359 kts 260°
2026-04-20 13:23 37.42379 125.75744 18348 ft 360 kts 260°
2026-04-20 13:23 37.41785 125.72684 18900 ft 361 kts 260°
2026-04-20 13:23 37.41191 125.69611 19423 ft 362 kts 260°
2026-04-20 13:23 37.40603 125.66529 19930 ft 362 kts 262°
2026-04-20 13:24 37.40302 125.63400 20427 ft 360 kts 270°
2026-04-20 13:24 37.40267 125.60242 20931 ft 361 kts 271°
2026-04-20 13:24 37.40230 125.57041 21398 ft 362 kts 271°
2026-04-20 13:24 37.40187 125.53863 21864 ft 364 kts 270°
2026-04-20 13:25 37.40137 125.50682 22313 ft 365 kts 270°
2026-04-20 13:25 37.40084 125.47488 22739 ft 366 kts 270°
2026-04-20 13:25 37.40034 125.44287 23173 ft 367 kts 270°
2026-04-20 13:25 37.39985 125.41073 23580 ft 368 kts 270°
2026-04-20 13:26 37.39937 125.37850 23985 ft 369 kts 270°
2026-04-20 13:26 37.39889 125.34623 24385 ft 370 kts 270°
2026-04-20 13:26 37.39838 125.31393 24782 ft 370 kts 270°
2026-04-20 13:26 37.39784 125.28151 25199 ft 370 kts 270°
2026-04-20 13:27 37.39729 125.24922 25616 ft 370 kts 270°
2026-04-20 13:27 37.39673 125.21687 26029 ft 370 kts 270°
2026-04-20 13:27 37.39617 125.18459 26442 ft 369 kts 270°
2026-04-20 13:27 37.39564 125.15228 26828 ft 369 kts 270°
2026-04-20 13:28 37.39509 125.12012 27212 ft 368 kts 270°
2026-04-20 13:28 37.39450 125.08808 27732 ft 364 kts 270°
2026-04-20 13:28 37.39391 125.05649 28275 ft 359 kts 270°
2026-04-20 13:28 37.39335 125.02537 28826 ft 354 kts 270°
2026-04-20 13:29 37.39278 124.99469 29366 ft 347 kts 270°
2026-04-20 13:29 37.39223 124.96464 29853 ft 342 kts 270°
2026-04-20 13:29 37.39166 124.93486 30317 ft 339 kts 271°
2026-04-20 13:29 37.39104 124.90535 30808 ft 335 kts 271°
2026-04-20 13:30 37.39047 124.87629 31230 ft 332 kts 270°
2026-04-20 13:30 37.38989 124.84738 31582 ft 329 kts 270°
2026-04-20 13:30 37.38934 124.81861 31900 ft 329 kts 270°
2026-04-20 13:30 37.38875 124.78994 32227 ft 328 kts 270°
2026-04-20 13:31 37.38818 124.76127 32550 ft 327 kts 270°
2026-04-20 13:31 37.38762 124.73279 32856 ft 326 kts 270°
2026-04-20 13:31 37.38704 124.70429 33157 ft 325 kts 270°
2026-04-20 13:31 37.38643 124.67597 33445 ft 324 kts 270°
2026-04-20 13:32 37.38578 124.64766 33747 ft 323 kts 270°
2026-04-20 13:32 37.38515 124.61908 34043 ft 322 kts 270°
2026-04-20 13:32 37.38451 124.59136 34330 ft 321 kts 270°
2026-04-20 13:32 37.38388 124.56335 34614 ft 320 kts 269°
2026-04-20 13:33 37.38327 124.53509 34884 ft 319 kts 269°
2026-04-20 13:33 37.38265 124.50722 35130 ft 319 kts 269°
2026-04-20 13:33 37.38200 124.47939 35380 ft 318 kts 269°
2026-04-20 13:33 37.38132 124.45159 35618 ft 318 kts 269°
2026-04-20 13:34 37.37829 124.42402 35846 ft 321 kts 259°
2026-04-20 13:34 37.37013 124.39763 36036 ft 330 kts 250°
2026-04-20 13:34 37.35803 124.37281 36094 ft 334 kts 247°
2026-04-20 13:35 37.33327 124.32354 36101 ft 333 kts 248°
2026-04-20 13:35 37.30852 124.27427 36106 ft 333 kts 248°
2026-04-20 13:36 37.28383 124.22500 36110 ft 333 kts 248°
2026-04-20 13:36 37.25908 124.17577 36110 ft 334 kts 247°
2026-04-20 13:37 37.23418 124.12638 36113 ft 335 kts 247°
2026-04-20 13:37 37.20849 124.07743 36120 ft 337 kts 246°
2026-04-20 13:38 37.18222 124.02868 36126 ft 337 kts 246°
2026-04-20 13:38 37.14915 123.98489 36122 ft 364 kts 229°
2026-04-20 13:39 37.10681 123.94932 36115 ft 367 kts 229°
2026-04-20 13:39 37.06428 123.91363 36121 ft 369 kts 228°
2026-04-20 13:40 37.02165 123.87792 36124 ft 369 kts 228°
2026-04-20 13:40 36.97874 123.84190 36126 ft 369 kts 228°
2026-04-20 13:41 36.93611 123.80613 36128 ft 369 kts 228°
2026-04-20 13:41 36.89351 123.77040 36135 ft 369 kts 228°
2026-04-20 13:42 36.85089 123.73469 36130 ft 369 kts 228°
2026-04-20 13:42 36.78688 123.68133 36126 ft 369 kts 227°
2026-04-20 13:43 36.74416 123.64564 36130 ft 370 kts 227°
2026-04-20 13:43 36.70141 123.61001 36132 ft 370 kts 227°
2026-04-20 13:44 36.65861 123.57442 36124 ft 369 kts 228°
2026-04-20 13:44 36.62330 123.54458 36127 ft 369 kts 228°
2026-04-20 13:45 36.58056 123.50839 36125 ft 369 kts 227°
2026-04-20 13:45 36.53799 123.47253 36127 ft 369 kts 227°
2026-04-20 13:46 36.49545 123.43672 36130 ft 369 kts 227°
2026-04-20 13:46 36.45292 123.40099 36136 ft 369 kts 227°
2026-04-20 13:47 36.43092 123.38403 36135 ft 380 kts 221°
2026-04-20 13:47 36.40560 123.37193 36133 ft 402 kts 210°
2026-04-20 13:47 36.37710 123.36659 36131 ft 429 kts 198°
2026-04-20 13:47 36.34688 123.36713 36137 ft 437 kts 195°
2026-04-20 13:48 36.28589 123.36924 36135 ft 438 kts 195°
2026-04-20 13:48 36.22491 123.37120 36135 ft 438 kts 195°
2026-04-20 13:49 36.16395 123.37293 36135 ft 438 kts 195°
2026-04-20 13:49 36.10297 123.37455 36135 ft 438 kts 195°
2026-04-20 13:50 36.04194 123.37625 36146 ft 439 kts 195°
2026-04-20 13:50 35.98095 123.37797 36155 ft 439 kts 195°
2026-04-20 13:51 35.91989 123.37966 36161 ft 439 kts 194°
2026-04-20 13:51 35.85883 123.38143 36168 ft 439 kts 194°
2026-04-20 13:52 35.79786 123.38313 36170 ft 438 kts 194°
2026-04-20 13:52 35.73640 123.38485 36173 ft 439 kts 194°
2026-04-20 13:53 35.67534 123.38659 36171 ft 439 kts 194°
2026-04-20 13:53 35.61435 123.38823 36174 ft 439 kts 194°
2026-04-20 13:54 35.55324 123.38992 36173 ft 439 kts 194°
2026-04-20 13:54 35.49217 123.39155 36173 ft 439 kts 194°
2026-04-20 13:55 35.43103 123.39327 36173 ft 440 kts 194°
2026-04-20 13:55 35.36989 123.39499 36172 ft 440 kts 193°
2026-04-20 13:56 35.30857 123.39670 36170 ft 441 kts 193°
2026-04-20 13:56 35.24727 123.39848 36170 ft 441 kts 193°
2026-04-20 13:57 35.18594 123.40008 36174 ft 441 kts 193°
2026-04-20 13:57 35.12463 123.40169 36170 ft 441 kts 193°
2026-04-20 13:58 35.06328 123.40344 36171 ft 441 kts 193°
2026-04-20 13:58 35.00191 123.40526 36168 ft 441 kts 192°
2026-04-20 13:59 34.94014 123.40901 36168 ft 447 kts 190°
2026-04-20 13:59 34.87802 123.41496 36165 ft 448 kts 189°
2026-04-20 14:00 34.81545 123.42101 36164 ft 447 kts 189°
2026-04-20 14:00 34.75340 123.42650 36161 ft 447 kts 189°
2026-04-20 14:01 34.69126 123.43173 36162 ft 448 kts 189°
2026-04-20 14:01 34.62915 123.43703 36167 ft 447 kts 189°
2026-04-20 14:02 34.56705 123.44243 36167 ft 447 kts 189°
2026-04-20 14:02 34.50494 123.44787 36167 ft 447 kts 188°
2026-04-20 14:03 34.44285 123.45320 36162 ft 447 kts 188°
2026-04-20 14:03 34.38069 123.45853 36162 ft 448 kts 188°
2026-04-20 14:04 34.31856 123.46388 36162 ft 448 kts 188°
2026-04-20 14:04 34.25635 123.46922 36166 ft 448 kts 188°
2026-04-20 14:05 34.19411 123.47436 36166 ft 445 kts 191°
2026-04-20 14:05 34.16415 123.47139 36163 ft 423 kts 204°
2026-04-20 14:05 34.13688 123.46073 36162 ft 403 kts 216°
2026-04-20 14:06 34.11344 123.44369 36158 ft 387 kts 227°
2026-04-20 14:06 34.09420 123.42171 36159 ft 374 kts 237°
2026-04-20 14:06 34.06951 123.36852 36147 ft 360 kts 256°
2026-04-20 14:07 34.05770 123.30988 36148 ft 360 kts 259°
2026-04-20 14:07 34.04612 123.25086 36153 ft 362 kts 259°
2026-04-20 14:08 34.03441 123.19181 36159 ft 363 kts 259°
2026-04-20 14:08 34.02259 123.13246 36154 ft 362 kts 258°
2026-04-20 14:09 34.01084 123.07362 36166 ft 361 kts 259°
2026-04-20 14:09 33.99922 123.01484 36168 ft 361 kts 259°
2026-04-20 14:10 33.98749 122.95583 36160 ft 363 kts 258°
2026-04-20 14:10 33.97556 122.89658 36143 ft 365 kts 258°
2026-04-20 14:11 33.96351 122.83691 36146 ft 368 kts 258°
2026-04-20 14:11 33.95151 122.77692 36153 ft 369 kts 258°
2026-04-20 14:12 33.93943 122.71691 36163 ft 369 kts 258°
2026-04-20 14:12 33.92725 122.65688 36167 ft 369 kts 258°
2026-04-20 14:13 33.91500 122.59691 36175 ft 369 kts 258°
2026-04-20 14:13 33.90285 122.53695 36182 ft 368 kts 258°
2026-04-20 14:14 33.89068 122.47705 36187 ft 368 kts 258°
2026-04-20 14:14 33.87842 122.41729 36183 ft 368 kts 258°
2026-04-20 14:15 33.86614 122.35763 36188 ft 367 kts 258°
2026-04-20 14:15 33.85396 122.29801 36185 ft 367 kts 258°
2026-04-20 14:16 33.84163 122.23804 36185 ft 367 kts 258°
2026-04-20 14:16 33.82934 122.17855 36191 ft 367 kts 258°
2026-04-20 14:17 33.81907 122.12911 36196 ft 367 kts 258°
2026-04-20 14:17 33.80666 122.06967 36196 ft 367 kts 258°
2026-04-20 14:18 33.79430 122.01022 36196 ft 367 kts 258°
2026-04-20 14:18 33.78188 121.95079 36196 ft 366 kts 258°
2026-04-20 14:19 33.76944 121.89143 36196 ft 366 kts 258°
2026-04-20 14:19 33.75697 121.83204 36196 ft 366 kts 258°
2026-04-20 14:20 33.74446 121.77270 36196 ft 367 kts 258°
2026-04-20 14:20 33.73191 121.71326 36196 ft 367 kts 258°
2026-04-20 14:21 33.71931 121.65385 36197 ft 367 kts 258°
2026-04-20 14:21 33.70682 121.59395 36201 ft 367 kts 258°
2026-04-20 14:22 33.69479 121.53430 36200 ft 368 kts 258°
2026-04-20 14:22 33.68268 121.47469 36202 ft 368 kts 258°
2026-04-20 14:23 33.67044 121.41496 36202 ft 369 kts 258°
2026-04-20 14:23 33.65828 121.35522 36200 ft 368 kts 258°
2026-04-20 14:24 33.64644 121.29533 36198 ft 369 kts 258°
2026-04-20 14:24 33.63457 121.23536 36189 ft 370 kts 258°
2026-04-20 14:25 33.62253 121.17527 36186 ft 370 kts 258°
2026-04-20 14:25 33.61041 121.11514 36177 ft 371 kts 258°
2026-04-20 14:26 33.59827 121.05489 36186 ft 372 kts 258°
2026-04-20 14:26 33.58608 120.99457 36184 ft 372 kts 258°
2026-04-20 14:27 33.57383 120.93418 36185 ft 373 kts 258°
2026-04-20 14:27 33.56152 120.87383 36190 ft 373 kts 258°
2026-04-20 14:28 33.54908 120.81352 36197 ft 373 kts 258°
2026-04-20 14:28 33.53640 120.75337 36198 ft 372 kts 258°
2026-04-20 14:29 33.52378 120.69343 36195 ft 371 kts 258°
2026-04-20 14:29 33.51173 120.63289 36189 ft 371 kts 258°
2026-04-20 14:30 33.49976 120.57264 36188 ft 372 kts 258°
2026-04-20 14:30 33.48745 120.51237 36185 ft 373 kts 258°
2026-04-20 14:31 33.47495 120.45203 36195 ft 373 kts 258°
2026-04-20 14:31 33.46238 120.39190 36194 ft 372 kts 258°
2026-04-20 14:32 33.44988 120.33192 36187 ft 372 kts 258°
2026-04-20 14:32 33.43730 120.27188 36196 ft 371 kts 258°
2026-04-20 14:33 33.42434 120.21198 36194 ft 372 kts 254°
2026-04-20 14:33 33.40140 120.15597 36196 ft 377 kts 246°
2026-04-20 14:34 33.37623 120.10087 36196 ft 377 kts 246°
2026-04-20 14:34 33.35108 120.04587 36197 ft 377 kts 246°
2026-04-20 14:35 33.32594 119.99084 36198 ft 377 kts 246°
2026-04-20 14:35 33.30080 119.93581 36198 ft 378 kts 246°
2026-04-20 14:36 33.27550 119.88067 36199 ft 379 kts 246°
2026-04-20 14:36 33.25017 119.82544 36199 ft 379 kts 246°
2026-04-20 14:37 33.22482 119.77025 36200 ft 379 kts 245°
2026-04-20 14:37 33.19930 119.71480 36201 ft 379 kts 245°
2026-04-20 14:38 33.17384 119.65962 36201 ft 379 kts 245°
2026-04-20 14:38 33.14842 119.60453 36199 ft 379 kts 245°
2026-04-20 14:39 33.12287 119.54932 36202 ft 380 kts 245°
2026-04-20 14:39 33.09728 119.49408 36200 ft 380 kts 245°
2026-04-20 14:40 33.07167 119.43883 36198 ft 381 kts 245°
2026-04-20 14:40 33.04599 119.38361 36200 ft 382 kts 245°
2026-04-20 14:41 33.02023 119.32830 36202 ft 382 kts 245°
2026-04-20 14:41 32.99434 119.27290 36199 ft 382 kts 245°
2026-04-20 14:42 32.96852 119.21754 36199 ft 382 kts 245°
2026-04-20 14:42 32.94277 119.16227 36202 ft 382 kts 245°
2026-04-20 14:43 32.91706 119.10699 36201 ft 382 kts 245°
2026-04-20 14:43 32.89150 119.05164 36202 ft 381 kts 245°
2026-04-20 14:44 32.86607 118.99676 35845 ft 373 kts 245°
2026-04-20 14:44 32.85362 118.97008 35602 ft 365 kts 245°
2026-04-20 14:44 32.84140 118.94386 35347 ft 360 kts 245°
2026-04-20 14:45 32.82943 118.91781 35100 ft 358 kts 246°
2026-04-20 14:45 32.81742 118.89151 34847 ft 357 kts 246°
2026-04-20 14:45 32.80558 118.86558 34601 ft 356 kts 246°
2026-04-20 14:45 32.79379 118.83975 34345 ft 355 kts 245°
2026-04-20 14:46 32.78202 118.81407 34096 ft 354 kts 246°
2026-04-20 14:46 32.77025 118.78843 33845 ft 353 kts 246°
2026-04-20 14:46 32.75850 118.76286 33594 ft 352 kts 245°
2026-04-20 14:46 32.74673 118.73732 33342 ft 352 kts 245°
2026-04-20 14:47 32.73498 118.71187 33092 ft 352 kts 245°
2026-04-20 14:47 32.72322 118.68641 32841 ft 351 kts 245°
2026-04-20 14:47 32.71151 118.66103 32591 ft 350 kts 245°
2026-04-20 14:48 32.68491 118.61246 32091 ft 356 kts 233°
2026-04-20 14:48 32.66660 118.59237 31827 ft 362 kts 224°
2026-04-20 14:48 32.64507 118.57597 31025 ft 377 kts 213°
2026-04-20 14:48 32.62036 118.56483 30653 ft 382 kts 202°
2026-04-20 14:49 32.59435 118.55790 30185 ft 383 kts 199°
2026-04-20 14:49 32.56838 118.55124 29734 ft 381 kts 199°
2026-04-20 14:49 32.54260 118.54456 29305 ft 378 kts 199°
2026-04-20 14:49 32.51680 118.53852 28874 ft 380 kts 194°
2026-04-20 14:50 32.49023 118.53719 28438 ft 386 kts 184°
2026-04-20 14:50 32.46338 118.54154 27999 ft 392 kts 176°
2026-04-20 14:50 32.43667 118.54768 27593 ft 390 kts 176°
2026-04-20 14:50 32.41871 118.55178 27302 ft 389 kts 176°
2026-04-20 14:51 32.39213 118.55780 26697 ft 391 kts 176°
2026-04-20 14:51 32.36544 118.56379 25771 ft 389 kts 175°
2026-04-20 14:51 32.33896 118.56972 24865 ft 384 kts 175°
2026-04-20 14:51 32.31290 118.57552 23951 ft 379 kts 175°
2026-04-20 14:52 32.28715 118.58125 23060 ft 374 kts 175°
2026-04-20 14:52 32.26177 118.58692 22156 ft 369 kts 174°
2026-04-20 14:52 32.23669 118.59253 21252 ft 364 kts 175°
2026-04-20 14:52 32.21196 118.59806 20350 ft 359 kts 174°
2026-04-20 14:53 32.18758 118.60351 19456 ft 355 kts 174°
2026-04-20 14:53 32.16347 118.60890 18538 ft 350 kts 174°
2026-04-20 14:53 32.13968 118.61424 17636 ft 346 kts 174°
2026-04-20 14:53 32.11619 118.61949 16735 ft 342 kts 174°
2026-04-20 14:54 32.09295 118.62462 15832 ft 338 kts 174°
2026-04-20 14:54 32.06990 118.62965 14927 ft 335 kts 174°
2026-04-20 14:54 32.04704 118.63460 14021 ft 332 kts 174°
2026-04-20 14:54 32.02447 118.63950 13120 ft 330 kts 173°
2026-04-20 14:55 32.00191 118.64440 12211 ft 328 kts 173°
2026-04-20 14:55 31.97958 118.64929 11307 ft 325 kts 173°
2026-04-20 14:55 31.95743 118.65416 10531 ft 319 kts 172°
2026-04-20 14:55 31.93639 118.65885 10240 ft 297 kts 171°
2026-04-20 14:56 31.91666 118.66325 10052 ft 283 kts 171°
2026-04-20 14:56 31.89724 118.66754 9607 ft 285 kts 171°
2026-04-20 14:56 31.87764 118.67186 9148 ft 289 kts 170°
2026-04-20 14:56 31.85773 118.67623 8643 ft 293 kts 169°
2026-04-20 14:57 31.83754 118.68066 8123 ft 297 kts 169°
2026-04-20 14:57 31.81710 118.68512 7586 ft 301 kts 169°
2026-04-20 14:57 31.79637 118.68962 7042 ft 304 kts 169°
2026-04-20 14:57 31.77549 118.69420 6468 ft 307 kts 168°
2026-04-20 14:58 31.75400 118.69759 5900 ft 310 kts 178°
2026-04-20 14:58 31.73245 118.69767 5239 ft 316 kts 180°
2026-04-20 14:58 31.71032 118.69330 4579 ft 322 kts 195°
2026-04-20 14:58 31.68960 118.68328 3920 ft 326 kts 212°
2026-04-20 14:59 31.67348 118.66541 3478 ft 309 kts 230°
2026-04-20 14:59 31.66088 118.64646 3374 ft 279 kts 231°
2026-04-20 14:59 31.64842 118.63100 3379 ft 246 kts 210°
2026-04-20 14:59 31.63305 118.62376 3393 ft 235 kts 184°
2026-04-20 15:00 31.61711 118.62478 3400 ft 225 kts 158°
2026-04-20 15:00 31.60376 118.63284 3398 ft 210 kts 136°
2026-04-20 15:00 31.59456 118.64567 3389 ft 202 kts 116°
2026-04-20 15:00 31.59013 118.66100 3391 ft 199 kts 95°
2026-04-20 15:01 31.59075 118.67699 3395 ft 197 kts 74°
2026-04-20 15:01 31.59754 118.69079 3388 ft 200 kts 40°
2026-04-20 15:01 31.60979 118.69850 3309 ft 202 kts 30°
2026-04-20 15:01 31.62228 118.70604 3118 ft 201 kts 30°
2026-04-20 15:02 31.63443 118.71351 2916 ft 191 kts 30°
2026-04-20 15:02 31.64583 118.72053 2691 ft 179 kts 30°
2026-04-20 15:02 31.65655 118.72713 2486 ft 169 kts 30°
2026-04-20 15:02 31.66587 118.73458 2282 ft 158 kts 45°
2026-04-20 15:03 31.67367 118.74332 2079 ft 152 kts 45°
2026-04-20 15:03 31.68127 118.75185 1879 ft 150 kts 45°
2026-04-20 15:03 31.68820 118.76089 1699 ft 148 kts 56°
2026-04-20 15:03 31.69370 118.77120 1480 ft 149 kts 58°
2026-04-20 15:04 31.69921 118.78151 1294 ft 150 kts 58°
2026-04-20 15:04 31.70471 118.79181 1107 ft 149 kts 58°
2026-04-20 15:04 31.71020 118.80206 903 ft 148 kts 58°
2026-04-20 15:04 31.71568 118.81230 679 ft 148 kts 58°
2026-04-20 15:05 31.72128 118.82249 456 ft 148 kts 57°
2026-04-20 15:05 31.72666 118.83292 280 ft 148 kts 58°
2026-04-20 15:05 31.73214 118.84297 158 ft 148 kts 57°
2026-04-20 15:05 31.73753 118.85321 67 ft 135 kts 58°
2026-04-20 15:06 31.74193 118.86155 56 ft 103 kts 57°
2026-04-20 15:06 31.74478 118.86679 52 ft 40 kts 58°
2026-04-20 15:06 31.74547 118.86853 51 ft 2 kts 78°
2026-04-20 15:06 31.74550 118.86866 57 ft 2 kts 78°
2026-04-20 15:07 31.74553 118.86889 59 ft 3 kts 81°
2026-04-20 15:07 31.74558 118.86930 56 ft 9 kts 82°
2026-04-20 15:07 31.74563 118.87016 59 ft 11 kts 89°
2026-04-20 15:07 31.74546 118.87098 56 ft 11 kts 131°
2026-04-20 15:08 31.74480 118.87085 52 ft 11 kts 225°
2026-04-20 15:08 31.74433 118.87002 55 ft 13 kts 239°
2026-04-20 15:08 31.74372 118.86918 52 ft 14 kts 205°
2026-04-20 15:08 31.74277 118.86894 50 ft 15 kts 218°
2026-04-20 15:09 31.74222 118.86799 55 ft 13 kts 240°
2026-04-20 15:09 31.74171 118.86701 53 ft 17 kts 237°
2026-04-20 15:09 31.74101 118.86571 52 ft 19 kts 238°
2026-04-20 15:09 31.74027 118.86437 52 ft 20 kts 237°
2026-04-20 15:10 31.73941 118.86314 56 ft 19 kts 194°
2026-04-20 15:10 31.73830 118.86304 58 ft 4 kts 208°
2026-04-20 15:10 31.73802 118.86286 56 ft 5 kts 223°
2026-04-20 15:10 31.73772 118.86239 51 ft 9 kts 239°
2026-04-20 15:11 31.73742 118.86162 58 ft 11 kts 242°
2026-04-20 15:11 31.73691 118.86084 50 ft 13 kts 218°
2026-04-20 15:11 31.73601 118.86075 57 ft 14 kts 158°
2026-04-20 15:11 31.73532 118.86162 54 ft 16 kts 109°
2026-04-20 15:12 31.73530 118.86243 58 ft 7 kts 71°
2026-04-20 15:12 31.73569 118.86269 56 ft 4 kts
2026-04-20 15:12 31.73583 118.86270 56 ft 1 kts
2026-04-20 15:12 31.73598 118.86271 51 ft 3 kts
2026-04-20 15:13 31.73600 118.86271 51 ft 0 kts